Reflectivity
15 10 -20 8 12 -3 -20 -20 -20 -20 -20 -20 -20 -20 -20 -20 -20 -20 -20 24 -13 7 16 -19 11 -10 -20 -20 -20 -20 -17 -20 -20 6 27 -20 -20 -20 -20 -20 -20 -20 -20 -20 -20 -20 -20
-19 -20 -14 -9 -20 -13 -20 -20 -20 -20 -20 -20 -20 -20 -20 -20 -20 -20 -20 -20 -18 -20 -17 -20 -20 -19 -20 -20 -20 -20 -19 6 -2 28 26 -20 -20 -20 -20 -20 -20 -20 -20 -20 -20 -20 -20
-3 -20 -5 -8 -2 -2 -13 -20 -20 -20 -20 -20 -20 -20 -20 -20 -20 -20 -20 -20 -20 -20 -13 6 -5 -14 -19 -20 -20 -20 8 10 20 35 3 -20 -20 -20 -20 -20 -20 -20 -20 -20 -20 -20 -20
16 16 18 14 8 -4 -20 -20 -20 -20 -20 -20 -20 -20 -20 -20 -20 -20 -20 -20 -20 -20 -20 -20 -17 -6 -18 -12 -20 2 -8 14 30 27 4 -20 -20 -20 -20 -20 -20 -20 -20 -20 -20 -20 -20
18 18 18 18 15 15 -17 -20 -20 -20 -20 -20 -20 -20 -20 -20 -20 -20 -20 -20 -20 -20 -20 -20 -18 -16 16 25 10 24 18 22 5 21 17 -20 -20 -20 -20 -20 -20 -20 -20 -20 -20 -20 -20
17 18 16 17 17 17 13 2 -20 -20 -20 -20 -20 -20 -20 -20 -20 -20 -20 -20 -20 -20 -20 -20 -20 -2 17 22 -17 7 -0 -3 6 28 -2 -20 -20 -20 -20 -20 -20 -20 -20 -20 -20 -20 -20
16 16 12 9 12 15 13 15 14 -20 -20 -20 -20 -20 -20 -20 -20 -20 -20 -20 -20 -20 -20 -20 -20 -20 -1 16 24 8 -20 26 10 16 -19 -20 -20 -20 -20 -20 -20 -20 -20 -20 -20 -20 -20
-20 -20 -20 -20 -20 -17 -9 9 14 -13 -20 -20 -20 -20 -20 -20 -20 -20 -20 -20 -20 -20 -20 -20 -20 -20 -20 -20 -9 -0 5 14 -20 -20 -3 -20 -20 -20 -20 -20 -20 -20 -20 -20 -20 -20 -20
-20 -20 -20 -20 -20 -20 -20 -3 17 14 -20 -20 -20 -20 -20 -20 -20 -20 -20 -20 -20 -20 -20 -20 -20 -20 -20 -20 -20 -9 -20 -20 -16 -1 -20 -20 -20 -20 -20 -20 -20 -20 -20 -20 -20 -20 -20
-20 -20 -20 -20 -20 -20 -20 -20 2 13 -20 -20 -20 -20 -20 -20 -20 -20 -20 -20 -20 -20 -20 -20 -20 -20 -20 -20 -20 -20 -20 -1 -20 -20 -20 -20 -20 -20 -20 -20 -20 -20 -20 -20 -20 -20 -20
12 -20 -20 -20 -20 -20 -20 -20 -3 -5 -20 -20 -20 -20 -20 -20 -20 -20 -20 -20 -20 -20 -20 -20 -20 -20 -20 -20 -20 -20 -20 -20 -6 -20 -20 -20 -20 -20 -20 -20 -20 -20 -20 -20 -20 -20 -20
1 -20 -20 -20 -20 -20 -20 -20 -20 -3 -20 -20 -20 -20 -20 -20 -20 -20 -20 -20 -20 -20 -20 -20 -20 -20 -20 -20 -20 -20 -20 -20 -20 -18 1 -20 -20 -20 -20 -20 -20 -20 -20 -20 -20 -20 -20
-20 -20 -20 -20 -20 -20 -20 -20 -20 -14 -20 -20 -20 -20 -20 -20 -20 -20 -20 -20 -20 -20 -20 -20 -20 -20 -20 -20 -20 -20 -20 -20 -20 -20 -20 -20 -20 -20 -20 -20 -20 -20 -20 -20 -20 -20 -20
-20 -20 -20 -20 -20 -20 -20 -20 -20 -20 -20 -20 -20 -20 -20 -20 -20 -20 -20 -20 -20 -20 -20 -20 -20 -20 -20 -20 -20 -20 -20 -20 -20 -20 -20 -20 -20 -20 -20 -20 -20 -20 -20 -20 -20 -20 -20
-20 -20 -20 -20 -20 -20 -20 -20 -20 -20 -20 -20 -20 -20 -20 -20 -20 -20 -20 -20 -20 -20 -20 -20 -20 -20 -20 -20 -20 -20 -20 -20 -20 -20 -20 -20 -20 -20 -20 -20 -20 -20 -20 -20 -20 -20 -20
-20 -20 -20 -20 -20 -20 -20 -20 -20 -20 -20 -20 -20 -20 -20 -20 -20 -20 -20 -20 -20 -20 -20 -20 -20 -20 -20 -20 -20 -20 -20 -20 -20 -20 -20 -20 -20 -20 -20 -20 -20 -20 -20 -20 -20 -20 -20
-20 -20 -20 -20 -20 -20 -20 -20 -20 -20 -20 -20 -20 -20 -20 -20 -20 -20 -20 -20 -20 -20 -20 -20 -20 -20 -20 -20 -20 -20 -20 -20 -20 -20 -20 -20 -20 -20 -20 -20 -20 -20 -20 -20 -20 -20 -20
-20 -20 -20 -20 -20 -20 -20 -20 -20 -20 -20 -20 -20 -20 -20 -20 -20 -20 -20 -20 -20 -20 -20 -20 -20 -20 -20 -20 -20 -20 -20 -20 -20 -20 -20 -20 -20 -20 -20 -20 -20 -20 -20 -20 -20 -20 -20
-20 -20 -20 -20 -20 -20 -20 -20 -20 -20 -20 -20 -20 -20 -20 -20 -20 -20 -20 -20 -20 -20 -20 -20 -20 -20 -20 -20 -20 -20 -20 -20 -20 -20 -20 -20 -20 -20 -20 -20 -20 -20 -20 -20 -20 -20 -20
-20 -20 -20 -20 -20 -20 -20 -20 -20 -20 -20 -20 -20 -20 -20 -20 -20 -20 -20 -20 -20 -20 -20 -20 -20 -20 -20 -20 -20 -20 -20 -20 -20 -20 -20 -20 -20 -20 -20 -20 -20 -20 -20 -20 -20 -20 -20
-20 -20 -20 -20 -20 -20 -20 -20 -20 -20 -20 -20 -20 -20 -20 -20 -20 -20 -20 -20 -20 -20 -20 -20 -20 -20 -20 -20 -20 -20 -20 -20 -20 -20 -20 -20 -20 -20 -20 -20 -20 -20 -20 -20 -20 -20 -20
-20 -20 -20 -20 -20 -20 -20 -20 -20 -20 -20 -20 -20 -20 -20 -20 -20 -20 -20 -20 -20 -20 -20 -20 -20 -20 -20 -20 -20 -20 -20 -20 -20 -20 -20 -20 -20 -20 -20 -20 -20 -20 -20 -20 -20 -20 -20
-20 -20 -20 -20 -20 -20 -20 -20 -20 -20 -20 -20 -20 -20 -20 -20 -20 -20 -20 -20 -20 -20 -20 -20 -20 -20 -20 -20 -20 -20 -20 -20 -20 -20 -20 -20 -20 -20 -20 -20 -20 -20 -20 -20 -20 -20 -20
-20 -13 -20 -20 -20 -20 -20 -20 -20 -20 -20 -20 -20 -20 -20 -20 -20 -20 -20 -20 -20 -20 -20 -20 -20 -20 -20 -20 -20 -20 -20 -20 -20 -20 -20 -20 -20 -20 -20 -20 -20 -20 -20 -20 -20 -20 -20
-20 -19 -20 -20 -20 -20 -20 -20 -20 -20 -20 -20 -20 -20 -20 -20 -20 -20 -20 -20 -20 -20 -20 -20 -20 -20 -20 -20 -20 -20 -20 -20 -20 -20 -20 -20 -20 -20 -20 -20 -20 -20 -20 -20 -20 -20 -20
-20 -20 -20 -20 -20 -20 -20 -20 -20 -20 -20 -20 -20 -20 -20 -20 -20 -20 -20 -20 -20 -20 -20 -20 -20 -20 -20 -20 -20 -20 -20 -20 -20 -20 -20 -20 -20 -20 -20 -20 -20 -20 -20 -20 -20 -20 -20
-18 -20 -20 -20 -20 -20 -20 -20 -20 -20 -20 -20 -20 -20 -20 -20 -20 -20 -20 -20 -20 -20 -20 -20 -20 -20 -20 -20 -20 -20 -20 -20 -20 -20 -20 -20 -20 -20 -20 -20 -20 -20 -20 -20 -20 -20 -20
10 -15 -20 -20 -20 -20 -20 -20 -20 -20 -20 -20 -20 -20 -20 -20 -20 -20 -20 -20 -20 -20 -20 -20 -20 -20 -20 -20 -20 -20 -20 -20 -20 -20 -20 -20 -20 -20 -20 -20 -20 -20 -20 -20 -20 -20 -20
12 8 -20 -20 -20 -20 -20 -20 -20 -20 -20 -20 -18 -20 -3 -20 -20 -20 -20 -20 -20 -20 -20 -20 -20 -20 -20 -20 -20 -20 -20 -20 -20 -20 -20 -20 -20 -20 -20 -20 -20 -20 -20 -20 -20 -20 -20
Wind_Speed
15 15 15 15 14 14 15 15 15 16 15 15 15 14 16 16 17 18 16 17 16 17 17 16 14 2 5 7 1 2 5 1 11 7 5 4 5 3 8 6 5 5 1 5 6 8 8
16 16 15 15 15 15 15 15 15 16 15 14 15 15 15 17 16 13 15 17 15 12 1 6 4 3 6 8 4 3 4 8 9 5 7 5 4 1 4 5 5 5 6 4 8 7 7
16 16 16 16 16 15 15 15 16 15 15 13 14 14 15 14 16 16 13 14 14 13 7 3 6 1 13 4 2 3 5 8 5 7 13 2 4 2 3 7 6 5 7 7 10 7 4
16 16 17 17 17 16 16 15 15 16 15 14 14 14 14 14 16 16 16 14 12 10 9 8 7 4 9 3 0 2 5 8 14 17 8 9 6 3 1 6 5 6 6 5 5 6 2
17 17 18 18 18 18 17 17 16 15 16 15 14 16 15 16 16 16 16 16 15 11 6 8 3 4 6 5 3 3 5 5 6 5 6 4 5 4 4 7 6 6 5 4 1 4 1
17 18 18 19 18 18 18 18 17 16 15 16 14 14 16 16 15 13 16 11 13 8 4 1 2 6 6 1 5 5 6 6 3 6 1 4 5 5 5 5 6 6 7 3 4 1 1
16 18 18 19 20 20 20 19 18 16 15 15 16 13 14 14 14 15 8 6 8 8 9 5 2 1 2 1 2 7 5 3 3 4 5 6 10 3 3 2 4 7 7 6 1 2 2
16 16 18 19 20 20 21 21 19 17 16 14 14 15 12 13 13 11 4 6 3 2 4 4 2 3 3 0 8 12 5 0 6 5 2 9 6 3 6 2 4 6 9 3 2 1 2
16 17 18 19 20 21 21 21 21 18 17 15 13 13 13 12 10 5 4 2 1 1 4 7 4 4 5 7 3 8 4 2 8 9 8 8 2 5 4 9 12 5 7 4 5 2 3
16 17 19 20 21 21 21 20 21 20 17 15 12 11 12 13 5 1 3 2 2 1 7 12 10 7 6 2 6 2 5 4 6 5 5 7 7 5 7 8 5 6 4 4 6 4 3
16 17 19 20 21 21 21 22 22 21 17 14 11 11 11 6 3 3 2 3 1 3 7 10 9 5 8 6 2 10 5 8 6 4 5 1 6 7 10 4 4 4 3 5 5 5 5
16 18 19 20 21 21 21 22 22 20 17 13 11 11 8 4 3 0 1 3 4 9 2 7 5 6 6 7 5 6 7 8 3 9 10 3 2 5 1 2 5 2 6 9 6 4 4
16 17 18 20 20 21 21 21 21 20 18 13 10 10 4 2 1 1 2 4 7 8 4 6 3 5 3 6 6 6 5 6 3 7 6 6 5 5 4 5 7 8 6 5 6 6 6
15 16 18 20 20 21 21 22 22 21 18 12 8 8 5 1 1 1 3 7 11 6 4 3 3 5 3 3 3 5 3 4 6 5 4 5 6 6 7 4 2 4 4 7 6 3 4
14 15 16 18 19 21 22 22 22 21 17 11 4 2 2 3 1 2 6 8 7 6 3 4 4 4 5 3 2 5 3 2 2 4 5 6 2 3 2 2 2 1 3 4 7 2 4
13 14 16 17 19 21 22 23 23 22 20 5 3 2 2 1 2 5 7 4 2 2 1 2 3 1 1 5 4 3 4 2 2 2 1 4 5 2 1 1 2 2 4 4 4 3 3
11 13 14 16 17 19 21 23 24 24 22 2 3 4 2 2 3 6 5 2 1 1 1 2 1 1 3 2 3 3 4 4 5 6 5 4 4 4 4 2 6 2 0 3 4 4 6
9 12 13 15 15 17 19 21 23 23 20 6 2 5 2 2 6 3 3 2 1 2 2 2 1 2 2 2 3 3 1 3 7 4 3 3 5 3 3 3 2 2 4 5 6 5 3
9 11 12 12 14 16 18 20 22 21 16 2 3 2 1 4 5 3 1 2 2 2 2 4 3 2 1 1 2 2 3 2 3 3 2 3 2 3 7 6 4 2 4 3 3 2 5
8 9 10 11 12 14 17 19 22 23 20 4 3 3 6 6 1 5 3 2 2 1 2 2 2 3 3 2 3 3 2 1 2 2 3 2 3 5 6 3 3 3 4 5 5 4 4
9 9 9 9 11 12 14 17 21 25 18 4 4 1 3 2 4 4 3 0 2 3 1 2 3 1 1 1 1 0 1 3 2 2 2 3 2 2 5 6 4 6 7 7 9 6 8
9 8 9 9 9 10 12 14 18 23 12 5 3 3 2 2 0 3 2 1 1 1 2 2 1 4 2 1 1 4 3 3 4 3 1 2 2 3 6 3 1 6 10 11 11 8 11
10 8 9 8 9 10 11 12 14 18 9 4 3 3 2 2 2 4 5 6 6 6 0 2 2 2 4 2 3 3 3 0 2 6 4 3 3 3 5 4 7 9 10 13 5 6 10
11 10 10 8 8 9 10 10 11 12 8 3 1 2 3 3 1 3 4 3 6 5 6 6 5 3 2 2 3 1 2 2 2 3 2 5 4 3 4 4 2 7 2 4 10 7 9
12 11 10 9 9 7 8 8 6 8 8 4 1 2 2 2 2 2 2 3 1 1 2 2 1 3 4 3 3 3 3 3 2 3 1 2 4 1 1 2 9 1 2 2 3 2 3
13 13 12 10 10 7 5 4 2 3 5 3 1 2 3 3 4 1 2 2 3 3 3 3 3 1 2 2 2 6 4 4 2 1 4 3 3 3 2 2 5 2 2 0 1 4 7
16 15 13 12 10 9 7 5 4 4 2 3 0 1 4 1 4 1 3 4 5 2 2 1 3 1 4 1 1 4 4 5 5 7 6 4 2 6 4 3 10 6 4 3 2 4 2
17 17 15 14 12 10 9 8 6 5 7 2 1 2 3 2 5 1 1 2 1 1 3 3 3 1 3 1 1 3 2 4 1 3 6 7 7 5 4 4 9 5 1 3 4 3 3
16 18 17 15 14 11 10 8 7 5 8 5 1 1 1 2 5 2 3 3 3 3 4 2 3 3 5 4 2 1 2 2 1 3 2 3 6 6 9 8 4 3 4 4 6 5 4
Wind_Direction
33 27 20 17 13 7 1 358 359 3 6 3 357 2 354 357 359 6 14 34 44 57 67 82 121 167 50 53 128 277 324 134 56 32 12 327 127 157 137 128 102 84 340 30 347 61 64
33 27 19 14 10 9 4 356 355 356 4 5 351 353 350 347 344 346 349 351 1 2 28 160 235 294 96 81 247 238 268 131 73 57 257 237 162 303 104 113 94 128 80 27 9 27 46
32 27 22 16 10 7 4 358 351 351 355 360 346 352 341 346 334 338 340 340 338 338 10 83 185 210 78 157 182 178 209 113 92 212 248 239 183 161 136 89 145 125 73 29 13 356 66
29 26 22 18 13 8 4 359 351 347 348 350 348 345 338 340 331 331 328 325 321 322 307 305 302 29 82 305 359 192 165 152 214 227 235 255 270 133 228 131 56 82 55 92 311 355 21
27 25 21 18 15 11 5 1 352 346 342 343 344 338 338 338 335 332 331 327 319 328 275 292 301 99 59 29 346 226 187 242 214 223 201 241 97 129 44 94 52 23 126 101 35 16 79
25 23 20 17 14 11 7 360 354 347 342 338 337 337 331 335 333 330 324 310 300 345 349 271 329 49 98 103 238 251 194 213 347 252 25 79 65 80 42 71 166 158 104 81 147 326 44
21 20 18 15 12 9 6 0 354 348 343 338 331 336 328 331 334 333 351 13 15 353 28 82 257 45 318 233 148 339 357 38 218 65 63 22 67 58 315 319 157 133 110 114 61 303 140
13 12 10 7 7 5 3 1 355 347 342 337 330 328 332 329 335 338 62 75 164 220 352 4 83 15 318 314 41 357 351 357 69 67 56 46 67 304 297 241 156 102 115 87 57 343 116
9 8 4 4 3 1 358 357 358 351 342 334 329 327 328 331 331 38 77 111 181 118 68 351 339 5 323 26 26 331 17 20 66 62 52 88 321 342 58 42 99 36 119 157 145 121 31
2 3 2 1 1 358 354 353 355 357 347 335 328 327 328 321 58 317 62 313 338 54 69 329 344 357 2 0 31 322 15 55 44 98 63 69 333 58 45 69 21 76 327 109 108 87 178
357 359 359 357 356 354 353 351 355 359 354 343 332 327 334 14 146 73 294 318 293 68 64 302 316 293 343 68 313 344 346 34 56 23 91 319 13 34 54 351 322 135 77 78 92 86 63
352 356 356 355 353 351 351 352 353 359 357 351 343 333 349 20 49 238 337 354 41 45 324 332 323 343 6 13 8 339 23 49 144 62 48 79 27 53 90 0 41 118 62 42 54 66 30
348 350 351 352 351 350 349 350 353 358 358 354 345 347 18 63 162 297 56 50 41 81 291 315 330 355 57 357 12 33 33 22 83 75 6 4 14 336 21 55 16 55 52 16 9 12 217
347 346 347 347 348 348 349 348 351 354 353 350 342 345 2 65 340 58 59 52 66 249 259 300 333 336 70 10 17 11 45 28 20 68 94 109 346 5 336 86 135 47 122 146 183 184 253
347 345 343 343 346 348 346 347 348 352 349 341 338 17 26 308 346 64 74 52 178 201 286 5 335 19 342 351 94 73 66 77 2 17 122 129 19 315 42 51 91 237 54 160 101 68 46
344 344 343 343 345 343 344 345 345 349 349 352 90 72 319 283 75 60 71 133 178 225 5 40 55 46 75 336 12 57 20 343 11 73 350 191 100 233 242 149 23 83 159 65 4 138 272
333 339 342 343 342 341 341 344 344 349 350 124 63 59 275 105 63 49 92 181 173 262 111 113 130 59 80 28 20 30 340 334 3 349 42 40 86 299 29 215 180 110 131 75 109 145 167
320 333 339 340 338 339 341 343 344 350 352 56 71 46 282 88 50 38 65 8 334 348 343 325 348 89 93 27 58 80 99 337 346 357 38 24 122 155 192 262 180 193 201 149 124 229 238
312 324 332 337 337 338 341 342 342 346 3 340 81 236 309 105 81 25 305 57 52 12 5 342 345 16 9 101 112 141 163 214 79 66 109 357 2 46 351 354 357 241 217 174 130 97 201
304 310 321 332 335 339 342 343 343 345 351 99 66 29 339 45 102 115 115 46 35 18 316 327 303 6 8 354 16 158 146 198 38 89 159 123 133 163 188 209 134 234 231 209 160 145 196
287 299 309 322 332 338 344 345 348 349 353 95 32 249 198 336 7 90 95 43 97 358 356 355 330 306 34 215 5 353 72 11 10 23 50 97 201 171 240 242 230 225 228 213 211 202 201
277 283 298 310 321 332 340 347 353 354 5 70 111 127 20 162 222 111 19 157 139 108 94 350 7 337 331 273 306 226 166 179 242 2 84 32 304 44 305 323 341 273 248 228 231 235 255
263 265 278 293 309 321 333 348 355 4 20 66 337 349 72 265 157 122 201 179 178 162 125 127 137 18 344 14 316 310 318 63 179 159 192 137 124 67 271 354 322 285 238 212 200 205 215
260 252 257 272 295 310 320 339 358 12 56 117 153 114 50 290 207 209 187 187 180 190 163 171 148 157 185 311 294 239 248 244 217 55 149 144 133 140 259 1 283 249 237 190 201 239 234
249 256 259 263 278 295 308 317 346 6 27 81 112 77 110 249 253 312 180 181 134 318 232 227 264 173 160 117 75 17 348 353 29 38 19 169 135 279 184 242 295 343 45 149 174 260 298
240 243 246 254 266 274 284 293 295 345 13 85 82 134 95 109 251 284 169 191 186 181 339 304 345 296 57 68 123 155 193 200 227 304 18 38 39 139 141 194 255 239 326 6 215 291 345
242 238 235 239 245 255 267 255 248 259 226 110 226 145 105 142 278 97 199 193 160 142 169 211 165 51 20 22 185 183 221 164 193 182 169 152 167 198 210 274 290 259 284 329 110 242 319
247 241 236 236 236 239 249 233 233 257 202 150 224 196 126 161 276 272 250 139 27 68 161 200 63 13 73 141 230 266 205 231 167 163 181 172 156 195 150 193 262 189 60 182 205 225 223
275 243 240 234 234 228 238 224 219 225 198 169 231 224 151 176 233 258 254 250 218 201 160 225 188 158 181 116 211 94 289 343 187 257 45 263 199 184 190 215 242 239 231 196 175 220 233